Retour au catalogue

STARLINK-11344

ActifCommunicationsVLEO
NORAD 61688·PAYLOAD·🇺🇸 United States

Lancé Oct 30, 2024 depuis Vandenberg Space Force Base

Loading…

Prochains Passages (prochaines 24 heures)

TLE

FraisSource: CelesTrak SupGP

Époque: Sep 14, 2026, 21:30 UTC

1 61688C 24195B   26257.89631944 -.00000111  00000+0 -91201-6 0  2576
2 61688  53.1573 173.8354 0001161  98.3431  11.1369 15.69720683    12

Suivez STARLINK-11344 en temps réel avec AllMySat

Download on the App Store